Location: Unspecified
(51.0950°N, 12.9690°E)
Time: 11:42:34
(UTC+00:00)

ATLAS 3B R/B - Pass Details

Date: 29 May 2022
Orbit: 976 x 1218 km, 63.8° (Epoch: 20 June)

Event Time Altitude Azimuth Distance (km) Brightness Sun altitude
Rises 22:17:32 0° 310° (NW) 3,993 6.6 -16.4°
Reaches altitude 10° 22:21:04 10° 294° (WNW) 3,069 5.6 -16.5°
Maximum altitude 22:25:52 19° 253° (WSW) 2,496 4.5 -16.7°
Enters shadow 22:30:15 11° 215° (SW) 3,024 4.6 -16.8°
